Location: Kolin
(50.0330°N, 15.2000°E)
Time: 20:53:41
(UTC+02:00)

SEEDS - Visible Passes

Search period start: 13 August 2022 00:00
Search period end: 23 August 2022 00:00
Orbit: 580 x 598 km, 97.6° (Epoch: 13 August)

Date Brightness Start Highest point End Pass type
(mag) Time Alt. Az. Time Alt. Az. Time Alt. Az.
13 Aug ? 04:31:41 10° NE 04:35:17 27° E 04:38:54 10° SSE visible
14 Aug ? 04:39:12 10° NNE 04:43:00 32° E 04:46:47 10° SSE visible
15 Aug ? 04:46:45 10° NNE 04:50:42 38° E 04:54:38 10° SSE visible
16 Aug ? 04:54:19 10° NNE 04:58:22 45° E 05:02:25 10° S visible
17 Aug ? 05:01:54 10° NNE 05:06:03 55° E 05:10:10 10° S visible
18 Aug ? 05:09:30 10° NNE 05:13:42 66° ESE 05:17:53 10° S visible
19 Aug ? 05:17:07 10° NNE 05:21:20 79° ESE 05:25:33 10° S visible
20 Aug ? 03:51:33 10° ENE 03:52:50 11° E 03:54:07 10° ESE visible
21 Aug ? 03:58:29 10° ENE 04:00:33 13° E 04:02:38 10° ESE visible
22 Aug ? 04:05:40 10° NE 04:08:16 16° E 04:10:51 10° SE visible
